Location: Newark
(49.1939°N, 0.8136°E)
Time: 23:42:34
(UTC+00:00)

Envisat - Visible Passes

Search period start: 20 November 2019 00:00
Search period end: 30 November 2019 00:00
Orbit: 764 x 766 km, 98.1° (Epoch: 20 November)

Date Brightness Start Highest point End Pass type
(mag) Time Alt. Az. Time Alt. Az. Time Alt. Az.
20 Nov 6.1 05:25:20 10° ENE 05:27:50 14° E 05:30:19 10° ESE visible
20 Nov 3.8 16:43:11 10° ESE 16:47:28 28° ENE 16:51:46 10° N visible
20 Nov 4.0 18:21:23 10° S 18:26:17 47° W 18:31:12 10° NNW visible
21 Nov 4.4 06:25:51 10° NNE 06:30:43 44° E 06:35:34 10° S visible
21 Nov 2.9 17:44:21 10° SSE 17:49:26 86° ENE 17:54:33 10° NNW visible
21 Nov 5.9 19:26:25 10° WSW 19:29:09 14° W 19:31:54 10° NW visible
22 Nov 5.7 05:49:42 10° NE 05:53:39 22° E 05:57:36 10° SE visible
22 Nov 3.3 17:07:58 10° SE 17:12:47 44° ENE 17:17:35 10° N visible
22 Nov 4.9 18:47:34 10° SSW 18:51:57 29° W 18:56:22 10° NNW visible
23 Nov 6.4 05:15:14 10° ENE 05:16:23 11° E 05:17:31 10° E visible
23 Nov 3.6 18:09:57 10° S 18:14:57 58° W 18:20:00 10° NNW visible
24 Nov 4.8 06:14:41 10° NNE 06:19:23 36° E 06:24:03 10° SSE visible
24 Nov 2.9 17:33:07 10° SSE 17:38:10 71° ENE 17:43:15 10° N visible
24 Nov 5.7 19:14:19 10° SW 19:17:44 18° W 19:21:09 10° NW visible
25 Nov 5.9 05:38:46 10° NE 05:42:15 18° E 05:45:43 10° SE visible
25 Nov 3.5 16:56:57 10° SE 17:01:34 36° ENE 17:06:11 10° N visible
25 Nov 4.6 18:35:57 10° SSW 18:40:35 35° W 18:45:16 10° NNW visible
26 Nov 3.7 06:39:57 10° NNE 06:45:00 60° E 06:50:01 10° S visible
26 Nov 3.2 17:58:36 10° S 18:03:40 72° WSW 18:08:46 10° NNW visible
26 Nov 6.2 19:42:45 10° W 19:43:37 10° W 19:44:28 10° WNW visible
27 Nov 5.2 06:03:35 10° NNE 06:08:01 29° E 06:12:26 10° SSE visible
27 Nov 3.0 17:21:57 10° SSE 17:26:55 58° ENE 17:31:55 10° N visible
27 Nov 5.4 19:02:26 10° SW 19:06:19 22° W 19:10:14 10° NW visible
28 Nov 6.0 05:28:00 10° NE 05:30:50 15° E 05:33:39 10° ESE visible
28 Nov 3.7 16:46:00 10° ESE 16:50:22 30° ENE 16:54:46 10° N visible
28 Nov 4.2 18:24:25 10° S 18:29:15 43° W 18:34:07 10° NNW visible
29 Nov 4.2 06:28:45 10° NNE 06:33:41 48° E 06:38:35 10° S visible
29 Nov 3.0 17:47:17 10° SSE 17:52:22 88° WSW 17:57:30 10° NNW visible
29 Nov 6.0 19:29:46 10° WSW 19:32:09 13° W 19:34:33 10° WNW visible
